RH
24 23 24 24 25 26 28 32 40 41 55 79 83 82 82 73 68 89 70 47 55 59 66 75 70 68 63 65 64 60 56 54 55 50 47 49 59 62 58 51 60 65 74
24 25 27 27 29 32 37 42 45 54 60 70 78 78 83 91 91 70 46 37 58 61 66 67 64 67 68 64 66 63 61 60 60 54 53 63 63 67 66 63 64 56 64
27 27 29 32 34 40 47 48 49 62 76 80 80 84 92 91 79 48 42 46 65 66 65 71 73 72 71 70 68 66 67 67 63 73 61 55 59 62 67 70 91 65 65
28 28 32 36 39 45 47 52 63 67 82 85 74 91 70 55 53 49 47 56 66 70 77 79 82 82 76 71 75 85 76 82 75 72 68 61 58 54 72 66 68 58 57
28 31 34 38 43 47 48 53 64 65 82 88 82 82 72 67 55 58 58 67 74 77 79 76 77 83 87 82 76 75 80 81 79 72 64 58 62 54 70 90 78 58 55
30 34 36 40 45 49 52 58 71 78 78 80 82 81 84 64 62 59 64 79 80 72 67 67 68 70 71 83 86 87 87 81 82 79 85 62 53 56 61 89 91 86 59
33 35 39 41 43 51 55 67 69 75 77 87 94 88 72 80 63 54 52 72 68 68 70 69 70 70 81 78 77 80 95 94 92 90 88 69 62 60 69 73 76 75 68
36 40 42 44 48 55 60 67 69 67 78 88 85 70 76 69 56 55 55 74 69 70 71 75 75 77 77 85 91 83 76 71 75 84 90 86 77 74 72 81 79 75 67
41 44 48 50 59 69 69 67 66 66 65 62 62 72 78 72 56 58 63 78 79 78 80 80 82 79 85 92 85 85 74 67 83 82 88 94 96 94 89 84 91 88 74
56 59 60 63 71 74 74 68 66 72 65 63 77 74 60 58 59 60 68 85 85 81 78 76 87 92 93 85 78 84 80 83 78 79 78 77 83 81 94 88 73 83 83
55 54 68 73 73 75 76 69 68 68 64 73 72 64 62 61 63 62 70 89 85 80 73 69 80 94 83 82 85 85 91 94 91 88 81 74 73 78 82 85 82 73 69
65 76 80 76 77 79 78 75 68 69 79 76 66 67 66 66 68 68 69 88 89 86 83 76 86 87 85 88 86 93 96 98 95 91 88 84 84 85 85 90 93 89 79
79 85 89 91 85 83 84 74 73 73 76 74 74 82 78 77 78 73 70 82 93 85 90 78 86 88 84 78 89 95 86 92 94 91 89 88 94 98 99 98 99 98 95
89 93 96 93 96 90 87 74 71 75 74 76 79 79 79 84 89 86 76 95 90 85 86 76 72 78 72 78 81 84 91 90 100 97 94 96 99 98 98 99 98 98 96
93 80 78 82 88 95 99 79 72 71 77 76 75 82 89 92 92 83 78 93 92 89 75 85 77 80 75 68 75 79 79 78 88 100 98 95 95 95 96 99 98 99 95
95 89 85 94 90 97 99 88 78 79 75 72 74 78 79 82 88 86 77 96 88 79 80 81 83 86 82 72 73 76 76 74 83 100 99 97 96 95 93 91 96 96 94
96 97 97 100 98 100 100 100 90 84 82 77 77 76 79 80 85 90 82 97 91 83 84 81 89 91 85 76 71 72 73 78 86 100 100 100 100 97 92 89 88 87 86
81 89 98 100 100 100 100 100 100 99 92 83 80 79 78 82 86 92 97 95 95 91 90 84 86 89 88 78 74 74 74 78 79 93 100 100 100 99 92 90 88 88 80
93 100 100 100 99 99 96 88 100 100 97 94 94 90 80 82 91 100 100 99 93 87 90 88 89 92 91 90 91 92 93 84 78 85 98 100 100 98 94 94 94 93 83
95 94 100 100 100 100 100 96 96 99 97 92 94 98 92 77 84 97 100 100 100 95 96 96 91 92 96 97 98 97 92 90 81 77 86 100 100 99 96 97 96 91 82
77 78 86 100 99 100 100 100 96 97 90 88 88 83 86 83 94 98 100 95 87 96 98 100 99 91 88 86 93 97 92 93 93 84 82 92 100 95 92 98 95 92 85
78 85 98 100 100 100 100 100 100 100 94 93 90 87 77 91 86 98 97 88 84 86 88 93 96 96 91 97 99 100 96 94 96 88 84 83 97 93 92 90 90 90 86
98 97 100 99 100 100 100 100 100 100 100 97 94 94 96 93 86 91 85 77 79 91 88 83 82 86 88 91 88 87 91 94 98 66 53 84 95 92 92 89 85 80 80
96 100 100 100 100 100 100 100 100 98 95 96 98 95 92 89 88 84 80 76 77 78 80 80 80 83 87 92 89 90 87 77 80 78 52 56 97 95 92 86 89 89 84
100 100 100 100 98 99 100 100 100 100 100 98 99 98 96 98 95 83 82 83 78 80 81 83 84 80 84 89 88 92 90 82 84 83 65 64 75 70 90 85 94 89 88
93 97 98 97 96 98 100 100 99 99 99 98 98 98 99 99 98 98 93 89 83 83 84 82 83 81 85 89 89 92 91 84 87 84 72 68 70 92 92 89 91 93 91
Wind_Speed
5 5 7 9 11 15 18 20 20 20 19 15 13 13 12 10 12 18 14 14 15 14 13 12 13 12 14 16 17 19 20 21 20 33 29 29 29 27 26 25 22 19 14
0 3 6 8 11 13 16 18 19 19 17 15 15 14 11 15 20 17 10 12 13 13 11 11 13 14 18 19 20 21 21 22 23 29 28 26 24 24 24 24 21 16 14
3 4 6 8 11 13 15 18 20 19 17 16 13 15 19 16 15 9 10 12 10 8 9 11 15 17 20 22 22 24 22 22 21 23 28 27 25 22 22 19 18 17 13
5 7 8 9 12 14 17 19 19 19 17 14 15 15 13 8 9 9 9 7 6 8 10 14 16 18 20 22 23 21 22 20 22 23 25 24 23 22 18 19 19 16 13
8 11 11 12 13 15 18 22 20 19 16 14 15 13 9 10 10 5 3 5 8 12 15 16 16 17 19 20 20 21 22 22 21 21 22 21 20 18 15 11 15 17 14
11 13 13 14 15 17 19 23 21 18 16 14 10 9 12 8 3 3 6 7 10 13 15 17 18 16 15 17 18 18 19 21 22 22 22 19 21 19 18 13 10 10 9
13 14 14 17 17 17 19 20 19 17 16 12 10 10 4 1 2 6 9 8 11 13 15 16 16 15 16 16 17 20 20 18 20 22 22 20 18 17 18 18 14 13 16
13 13 17 18 17 16 18 17 17 16 12 8 8 3 3 1 5 8 12 10 11 12 13 14 15 16 15 17 21 20 18 18 18 18 19 19 19 19 18 17 18 17 18
13 16 17 17 16 14 15 15 15 12 10 7 4 4 4 1 5 9 10 10 11 13 13 14 14 15 16 19 20 19 19 20 15 16 19 19 19 18 18 18 18 15 14
12 14 16 15 15 16 15 14 14 12 11 9 5 5 4 3 6 8 9 9 12 14 14 14 13 14 17 19 19 18 19 19 21 19 17 15 14 15 16 17 18 17 13
14 17 15 14 17 16 12 12 13 11 9 7 7 5 5 6 6 7 8 8 11 14 14 14 13 15 18 18 16 14 17 20 18 16 16 15 13 13 12 11 13 18 19
14 14 12 15 16 9 9 10 10 9 6 7 7 7 8 9 8 8 8 8 9 12 13 13 14 17 17 15 13 14 15 14 14 14 14 13 12 12 11 11 11 12 17
14 12 11 14 11 9 10 9 8 6 5 6 7 8 8 9 9 9 10 9 10 11 11 13 14 15 15 12 12 13 12 12 13 14 14 14 14 14 13 12 11 11 12
10 10 13 13 14 12 11 9 7 6 6 7 9 10 9 8 9 9 9 8 9 10 12 12 11 12 12 11 11 11 11 11 10 12 14 15 14 13 11 8 7 7 10
8 10 14 15 15 13 12 10 7 7 8 9 10 10 10 10 10 10 8 8 8 10 13 9 9 10 12 12 11 11 12 12 11 12 14 15 14 14 14 13 9 3 7
9 10 12 12 13 12 11 9 11 11 12 12 13 14 15 14 12 10 9 9 9 11 9 9 9 9 10 12 12 12 11 13 12 12 12 13 14 14 14 14 13 11 9
11 12 12 12 12 10 9 10 11 11 13 13 13 14 15 15 12 12 10 10 10 11 8 9 8 8 9 10 11 11 12 12 12 10 11 12 13 12 12 13 12 12 10
13 13 13 12 12 11 10 11 12 12 11 11 13 13 13 14 14 13 11 10 10 10 9 9 8 8 9 9 9 10 11 11 11 10 10 10 11 11 11 11 11 11 10
13 12 15 15 15 14 15 16 13 11 12 13 14 14 14 14 14 14 14 14 13 13 11 9 8 8 8 8 8 8 9 9 10 10 9 10 10 10 10 10 10 10 10
12 16 18 17 15 13 15 14 13 13 13 14 14 15 12 13 14 14 15 15 14 14 13 11 9 9 8 8 8 8 7 8 8 8 8 8 9 9 9 9 9 9 10
16 17 19 20 14 15 15 17 17 15 14 15 15 16 18 16 15 14 14 16 18 16 15 13 11 11 11 10 8 7 7 7 7 7 8 7 8 8 8 7 8 7 8
17 17 14 16 18 18 16 18 19 16 16 17 17 17 19 20 19 17 17 19 20 20 18 16 14 12 12 10 8 7 7 7 6 6 7 7 7 7 8 7 7 7 7
18 18 16 17 18 19 17 16 17 16 17 17 18 17 16 20 22 21 21 22 22 22 20 19 18 16 15 13 12 10 9 7 6 8 7 6 6 7 7 7 7 7 7
18 17 16 18 18 17 16 15 15 19 19 18 19 19 20 20 24 27 26 24 22 20 20 20 19 17 15 14 13 12 11 10 8 8 7 7 6 6 6 6 6 7 6
17 17 17 17 18 17 15 14 16 18 19 21 21 23 26 27 26 29 30 28 26 23 22 21 21 19 17 16 14 12 11 10 8 8 7 6 6 6 5 5 5 5 6
19 20 17 16 15 14 14 14 14 15 17 19 21 23 24 25 27 30 31 32 31 27 25 24 22 20 18 17 15 13 11 10 8 8 7 6 5 4 4 4 4 4 4
Wind_Direction
65 40 20 8 357 348 342 338 337 332 329 302 262 255 279 275 275 298 270 279 278 281 285 284 281 282 285 289 291 293 291 291 291 295 297 300 299 295 290 280 272 269 268
274 8 360 353 342 334 336 335 331 326 321 309 285 281 281 286 292 276 271 286 279 284 289 287 285 291 293 296 298 296 293 293 291 291 298 299 305 305 292 284 263 261 265
260 329 330 327 328 327 330 332 328 322 317 313 297 291 295 290 282 264 288 295 291 293 296 293 297 300 300 302 300 297 295 295 292 288 295 295 291 301 305 277 279 267 271
270 305 303 313 318 319 328 329 326 324 317 311 303 298 298 281 282 289 304 298 300 304 301 303 305 303 302 303 301 295 298 294 293 290 289 292 292 292 308 283 268 267 269
285 289 290 308 307 315 323 326 324 323 320 313 310 299 299 310 299 293 309 319 316 309 310 312 309 305 304 301 299 299 300 296 292 290 289 291 290 299 295 312 295 272 272
286 287 292 306 306 310 318 323 320 315 313 303 311 298 291 284 263 310 333 328 319 318 317 316 314 316 314 309 304 300 294 294 291 294 297 283 287 285 291 282 290 300 282
295 293 294 312 310 304 316 322 318 313 309 293 291 292 284 145 318 337 329 331 325 322 320 320 321 319 319 317 312 304 301 301 291 294 281 284 292 294 296 289 282 275 274
303 302 307 312 305 303 313 318 319 319 322 309 296 269 183 241 324 335 334 333 326 324 324 322 319 319 320 320 315 315 314 314 307 298 285 278 280 284 281 281 284 278 274
315 315 313 311 303 302 309 312 317 313 318 306 267 206 197 265 320 336 338 334 329 328 327 323 321 319 322 323 323 319 320 316 312 311 300 293 281 278 277 278 278 240 258
326 319 316 313 305 303 300 304 310 304 298 285 226 215 235 281 316 329 342 333 329 330 327 325 325 325 323 329 325 320 318 323 321 316 312 306 291 283 275 264 261 265 277
313 310 308 310 309 299 288 301 305 304 292 244 227 234 262 289 299 317 331 330 327 326 327 328 329 331 329 328 327 323 322 323 319 316 310 305 298 291 284 270 254 244 247
314 312 314 324 319 297 291 300 304 301 259 231 223 250 271 277 279 298 313 316 320 321 323 324 325 328 330 328 331 326 325 329 325 323 320 317 311 301 293 279 260 248 240
317 318 317 324 318 297 295 294 291 271 233 225 248 270 273 272 268 282 300 308 311 320 317 317 319 328 333 334 332 336 343 341 333 330 328 324 318 307 295 280 263 242 242
317 319 314 322 321 296 289 283 268 241 229 255 275 279 278 271 266 272 286 301 309 321 324 324 326 332 340 340 344 345 347 344 337 333 330 328 331 337 334 329 264 231 229
313 316 314 315 315 301 283 265 247 242 258 276 285 277 269 271 269 265 274 295 304 313 329 330 335 341 344 348 347 349 350 352 352 347 345 345 347 353 355 358 359 296 224
297 297 309 310 311 302 279 264 255 262 272 276 280 279 280 272 268 263 272 277 283 306 324 329 332 337 338 340 343 346 350 352 349 350 349 350 351 355 358 5 13 22 39
291 290 305 299 300 296 272 252 259 269 264 276 274 277 274 273 264 258 261 266 271 293 304 317 319 328 328 329 335 340 341 343 345 347 352 351 352 354 1 8 11 14 15
294 298 297 293 291 278 268 266 263 259 264 280 283 271 271 265 261 256 253 259 264 274 278 292 306 314 318 319 327 331 335 340 345 346 349 353 354 354 358 3 8 4 358
299 296 297 294 292 277 272 271 257 252 262 276 275 269 266 264 251 248 247 249 262 271 275 276 284 293 301 309 311 320 326 333 338 343 344 350 354 356 352 353 351 354 353
308 307 303 280 283 284 269 255 244 252 265 273 268 260 257 261 249 245 243 245 251 259 265 266 272 276 285 295 302 310 316 325 334 339 341 342 347 351 348 345 348 347 351
306 308 308 294 282 289 278 251 245 248 256 262 267 266 260 257 253 253 248 250 254 257 263 261 261 269 278 286 293 294 302 306 322 328 332 338 341 345 348 344 345 346 347
296 298 300 288 286 284 274 264 244 246 256 261 261 266 269 255 254 254 256 256 259 262 261 259 258 259 264 264 271 281 292 294 308 321 326 332 337 341 345 348 349 350 352
297 292 291 290 285 283 282 267 251 246 256 256 257 261 260 253 252 252 257 262 263 263 254 254 256 258 261 263 266 275 280 283 289 313 323 325 331 337 342 344 348 354 0
301 290 286 291 290 284 284 274 258 253 256 259 257 257 259 259 258 257 257 259 261 256 249 249 252 254 254 255 257 264 272 284 285 300 309 313 317 327 334 337 346 350 355
299 287 289 293 296 289 290 289 271 259 256 258 259 258 257 257 259 260 260 255 252 250 248 247 247 248 246 247 253 256 261 273 272 286 296 301 304 315 316 326 326 342 354
306 295 286 301 302 300 299 295 290 283 276 274 272 271 267 261 258 257 255 255 248 245 244 244 243 242 242 242 245 249 248 257 260 272 281 284 286 288 295 307 315 311 326